This is the latest recevied weather packets stored in our database for station/object WK7G. If no packets are shown the sender has not sent any weather packets the latest 10 day(s).
| Time | Temp. | Humidity | Pressure | Rain* | Wind** | Luminosity | Snow |
|---|---|---|---|---|---|---|---|
| 1778078568 | 3.33° C | 47% | 1012.4 hPa | 0 mm | - | 329 W/m² | - |
| 1778078266 | 2.78° C | 49% | 1012.4 hPa | 0 mm | - | 320 W/m² | - |
| 1778077963 | 2.78° C | 50% | 1012.5 hPa | 0 mm | - | 287 W/m² | - |
| 1778077662 | 2.78° C | 50% | 1012.4 hPa | 0 mm | - | 270 W/m² | - |
| 1778077359 | 2.78° C | 50% | 1012.3 hPa | 0 mm | - | 248 W/m² | - |
| 1778077057 | 2.22° C | 51% | 1012.5 hPa | 0 mm | - | 246 W/m² | - |
| 1778076755 | 2.22° C | 54% | 1012.4 hPa | 0 mm | - | 234 W/m² | - |
| 1778076452 | 1.67° C | 55% | 1012.4 hPa | 0 mm | - | 218 W/m² | - |
| 1778076149 | 0.56° C | 56% | 1012.7 hPa | 0 mm | - | 199 W/m² | - |
| 1778075846 | 0.56° C | 57% | 1012.4 hPa | 0 mm | - | 184 W/m² | - |
| 1778075542 | 0.56° C | 56% | 1012.4 hPa | 0 mm | - | 163 W/m² | - |
| 1778075239 | 0.56° C | 57% | 1012.2 hPa | 0 mm | - | 136 W/m² | - |
| 1778074935 | 0.56° C | 57% | 1012.3 hPa | 0 mm | - | 130 W/m² | - |
| 1778074633 | 0° C | 59% | 1012.2 hPa | 0 mm | - | 116 W/m² | - |
| 1778074329 | -0.56° C | 59% | 1012.1 hPa | 0 mm | - | 105 W/m² | - |
| 1778074026 | -1.11° C | 60% | 1011.9 hPa | 0 mm | - | 61 W/m² | - |
| 1778073723 | -1.67° C | 65% | 1011.9 hPa | 0 mm | - | 52 W/m² | - |
| 1778073421 | -1.67° C | 65% | 1012.1 hPa | 0 mm | - | 47 W/m² | - |
| 1778073117 | -2.78° C | 67% | 1011.7 hPa | 0 mm | - | 41 W/m² | - |
| 1778072814 | -3.33° C | 68% | 1011.8 hPa | 0 mm | - | 37 W/m² | - |
| 1778072511 | -3.89° C | 70% | 1011.8 hPa | 0 mm | - | 34 W/m² | - |
| 1778072209 | -4.44° C | 71% | 1011.8 hPa | 0 mm | - | 30 W/m² | - |
| 1778071907 | -4.44° C | 71% | 1011.8 hPa | 0 mm | - | 27 W/m² | - |
| 1778071604 | -4.44° C | 72% | 1011.6 hPa | 0 mm | - | 23 W/m² | - |
| 1778071302 | -5° C | 73% | 1011.8 hPa | 0 mm | - | 19 W/m² | - |
* Rain latest hour (hover to see other rain measurements)
** Current wind speed in m/s (hover to see current wind gust speed)